Regional Weather Roundup
Issued by NWS

Home | Current Version | Previous Version | Text Only | Print | Product List | Glossary Off
Versions: 1 2 3 4 5 6 7 8 9 10 11 12 13 14 15 16 17 18 19 20 21 22 23 24 25 26 27 28 29 30 31 32 33 34 35 36 37 38 39 40 41 42 43 44 45 46 47 48 49 50

000
ASUS45 KPSR 160110
RWRAZ

ARIZONA REGIONAL HOURLY WEATHER ROUNDUP
NATIONAL WEATHER SERVICE PHOENIX AZ
600 PM MST MON SEP 15 2014

NOTE: FAIR INDICATES FEW OR NO CLOUDS BELOW 12,000 FEET WITH NO
SIGNIFICANT WEATHER AND/OR OBSTRUCTIONS TO VISIBILITY.

AZZ001>003-036-160200-
NORTHWEST ARIZONA

CITY           SKY/WX    TMP DP  RH WIND       PRES   REMARKS
BULLHEAD CITY  CLEAR    106  48  14 SW7       29.73S HX 102
KINGMAN        CLEAR     94  44  17 W5        29.96S
$$

AZZ004>008-015-016-018-160200-
NORTH CENTRAL ARIZONA

CITY           SKY/WX    TMP DP  RH WIND       PRES   REMARKS
GRAND CANYON   CLEAR     79  41  25 CALM      30.23F
PRESCOTT       CLOUDY    74  52  46 S14G24    30.14R
FLAGSTAFF      MOCLDY    70  48  45 SW12      30.29R
PAYSON         MOCLDY    81  50  34 CALM      30.15S
PAGE           CLEAR     91  40  16 SE13      30.04S
$$

AZZ009>014-017-160200-
NORTHEAST ARIZONA

CITY           SKY/WX    TMP DP  RH WIND       PRES   REMARKS
WINSLOW        MOCLDY    85  47  26 SW13      30.09R
SAINT JOHNS    CLOUDY    76  49  38 SE9       30.17R
WINDOW ROCK    LGT RAIN  68  50  52 W20G25    30.28R
SHOW LOW       CLOUDY    66  46  48 S8        30.23F
$$

AZZ023-160200-
GREATER PHOENIX AREA

CITY           SKY/WX    TMP DP  RH WIND       PRES   REMARKS
PHOENIX        MOCLDY   101  56  22 CALM      29.76R HX 100
BUCKEYE          N/A    100  57  23 E3        29.78R
GLENDALE       MOCLDY   100  59  25 CALM      29.78R HX 100
LUKE AFB       PTCLDY   101  60  26 CALM      29.77R HX 101
DEER VALLEY    PTCLDY    99  55  23 CALM      29.80R
SCOTTSDALE     PTCLDY   100  57  23 SW5       29.81R
MESA-FALCON    MOCLDY    99  57  25 SW7       29.79R
MESA-GATEWAY   MOCLDY   100  59  25 W6        29.80R HX 100
CHANDLER       MOCLDY   100  57  23 CALM      29.78S
$$

AZZ027-028-160200-
SOUTHWEST MARICOPA COUNTY AND PINAL COUNTY

CITY           SKY/WX    TMP DP  RH WIND       PRES   REMARKS
CASA GRANDE    MOCLDY    99  57  25 CALM      29.81S
GILA BEND      MOCLDY   102  54  19 N8        29.75R HX 100
$$

AZZ503-504-507>509-160200-
SOUTHEAST ARIZONA

CITY           SKY/WX    TMP DP  RH WIND       PRES   REMARKS
TUCSON         CLOUDY    88  63  43 S17       29.93R
DAVIS-MONTHAN  CLOUDY    87  62  42 S10       29.91R
NOGALES        CLOUDY    74  62  66 S7        30.04S
SIERRA VISTA   CLOUDY    79  57  47 S3        30.09F
DOUGLAS        CLOUDY    77  59  53 SE20      30.08R
SAFFORD        CLOUDY    88  55  32 S12       29.97R
$$

AZZ020-021-025-026-031-160200-
SOUTHWEST ARIZONA

CITY           SKY/WX    TMP DP  RH WIND       PRES   REMARKS
YUMA           MOCLDY   108  49  14 S6        29.67S HX 104
$$

CAZ031-033-041-043-047-048-061-160200-
SOUTHERN CALIFORNIA

CITY           SKY/WX    TMP DP  RH WIND       PRES   REMARKS
DOWNTOWN L.A.  SUNNY     92  57  30 VRB3      29.70F
L.A. AIRPORT   MOSUNNY   85  58  39 W14       29.71F
SAN DIEGO      MOSUNNY   83  68  60 W8        29.76R
BURBANK        SUNNY     99  49  18 W13G21    29.75R
ONTARIO        MOSUNNY   99  49  18 W13G20    29.74S
RIVERSIDE      SUNNY     98  52  21 W10       29.74R
PALM SPRINGS   FAIR     108  53  16 E13       29.70S HX 106
EL CENTRO NAS  PTCLDY   107  54  17 SW6       29.65F HX 105
IMPERIAL       CLEAR    107  57  19 W6        29.64F HX 107
BLYTHE         CLEAR    108  56  18 NE8       29.69S HX 107
NEEDLES        FAIR     107  49  14 NE7       29.74S HX 104
$$

NVZ020-UTZ003-160200-
SOUTHERN NEVADA-UTAH

CITY           SKY/WX    TMP DP  RH WIND       PRES   REMARKS
LAS VEGAS      PTCLDY   101  41  12 VRB5      29.81S
SALT LAKE CITY PTCLDY    86  37  17 N6        30.04F
$$

NMZ009-TXZ055-160200-
NEW MEXICO-WEST TEXAS

CITY           SKY/WX    TMP DP  RH WIND       PRES   REMARKS
ALBUQUERQUE    TSTM      72  57  59 E25G31    30.19R
EL PASO        LGT RAIN  75  62  64 E6        30.14R
$$


........................KEY........................
SKY/WX - SKY CONDITION/WEATHER
TMP    - TEMPERATURE IN FAHRENHEIT
DP     - DEW POINT IN FAHRENHEIT
RH     - RELATIVE HUMIDITY IN PERCENT
WIND   - DIRECTION AND SPEED IN MILES PER HOUR (MPH)
VRB    - VARIABLE WIND DIRECTION
PRES   - MEAN SEA LEVEL PRESSURE IN INCHES OF MERCURY
         F - FALLING PRESSURE   R - RISING PRESSURE
         S - STEADY PRESSURE
VSB    - VISIBILITY IN MILES
HX     - HEAT INDEX IN FAHRENHEIT
WCI    - WIND CHILL INDEX IN FAHRENHEIT
TC     - TEMPERATURE IN CELSIUS WHICH IS ALSO KNOWN AS
         TEMPERATURE IN CENTIGRADE
AFB    - AIR FORCE BASE
         LUKE AFB IS LUKE AIR FORCE BASE
         DAVIS-MONTHAN IS DAVIS-MONTHAN AIR FORCE BASE
NAS    - NAVAL AIR STATION
         EL CENTRO NAS IS EL CENTRO NAVAL AIR STATION
N/A    - NOT AVAILABLE


USA.gov is the U.S. government's official web portal to all federal, state and local government web resources and services.